{"data":{"norad_id":57693,"intl_designator":"2023-126A","name":"CAPELLA-11 (ACADIA-1)","alt_names":[],"object_type":"PAYLOAD","status":"ACTIVE","operator":null,"country":"US","launch_date":"2023-08-23","launch_site_code":"RLLB","launch_vehicle":null,"mission":null,"orbit_class":"UNKNOWN","rcs_meters":null,"size_class":null,"mass_kg":null,"dimensions":null,"purposes":[],"wikipedia_slug":null,"has_3d_model":false,"image_url":null,"decayed_at":null,"tle_current":{"epoch":"2026-09-22T05:22:15.013632Z","epoch_age_seconds":157262,"freshness":"FRESH","line1":"1 57693U 23126A   26265.22378488  .00003183  00000+0  36428-3 0  9997","line2":"2 57693  53.0102 122.3894 0001164  96.5997 263.5116 14.88530118166555","mean_motion":14.88530118,"eccentricity":0.0001164,"inclination_deg":53.0102,"raan_deg":122.3894,"arg_perigee_deg":96.5997,"mean_anomaly_deg":263.5116,"bstar":0.00036428,"rev_number":16655,"period_min":96.739728849746,"perigee_km":601.71481198502,"apogee_km":603.33991064833,"semimajor_km":6980.6643613167,"source":"CELESTRAK","updated_at":"2026-09-23T09:00:18.295403Z"}}}